Tracking 22455 objects as of 9-Mar-2021
HD Live streaming from Space Station
objects crossing your sky now

CZ-4 DEB

Track CZ-4 DEB now!
10-day predictions


NORAD ID: 23254
Int'l Code: 1990-081CK
Perigee: 726.5 km
Apogee: 828.8 km
Inclination: 98.7 °
Period: 100.3 minutes
Semi major axis: 7148 km
RCS: 0.0074 m2 (small)
Launch date: September 3, 1990
Source: People's Republic of China (PRC)
Launch site: Taiyaun Space Center, China (TSC)

Note: This is SATELLITE DEBRIS
aabbcc
Your satellite tracking list
Your tracking list is empty




NASA's NSSDC Master Catalog

Two Line Element Set (TLE):
1 23254U 90081CK  21067.57424076  .00000224  00000-0  89413-4 0  9992
2 23254  98.7105 101.9689 0071578 189.0539 323.1492 14.36366063400674
Source of the keplerian elements: AFSPC